When you browse on this site, cookies collect data to enhance your experience and personalize the content and advertising you see.
Visit our Privacy Policy to learn more. By continuing to use the site, you agree to this use of cookies and data.
  • In Slovakia
  • List of Countries
  • For 7 days
  • Water Temperature
  • Satellite Maps
  • Weather Map
  • Weather Widgets
  • user-avatar
    Login

    Hourly Weather Norka

    Today, 21 November, Wednesday

    Time Temperature Precipitation Wind Pressure Humidity
    00:00 -7°C° 0 mm 4 mps 748 mmHg 85%
    01:00 -7°C° 0 mm 5 mps 747 mmHg 85%
    02:00 -7°C° 0 mm 5 mps 747 mmHg 85%
    03:00 -7°C° 0 mm 5 mps 747 mmHg 84%
    04:00 -7°C° 0.1 mm 5 mps 746 mmHg 85%
    05:00 -6°C° 0.1 mm 5 mps 746 mmHg 86%
    06:00 -6°C° 0.1 mm 5 mps 745 mmHg 87%
    07:00 -5°C° 0.1 mm 5 mps 745 mmHg 86%
    08:00 -5°C° 0.1 mm 6 mps 745 mmHg 86%
    09:00 -5°C° 0 mm 6 mps 744 mmHg 86%
    10:00 -4°C° 0.2 mm 6 mps 744 mmHg 83%
    11:00 -4°C° 0.2 mm 7 mps 744 mmHg 80%
    12:00 -3°C° 0.2 mm 7 mps 744 mmHg 77%
    13:00 -4°C° 0 mm 6 mps 745 mmHg 76%
    14:00 -5°C° 0 mm 6 mps 745 mmHg 75%
    15:00 -5°C° 0 mm 4 mps 745 mmHg 80%
    16:00 -5°C° 0 mm 4 mps 745 mmHg 80%
    17:00 -6°C° 0 mm 5 mps 745 mmHg 80%
    18:00 -8°C° 0 mm 6 mps 745 mmHg 80%
    19:00 -7°C° 0 mm 5 mps 745 mmHg 80%
    20:00 -7°C° 0 mm 5 mps 745 mmHg 81%
    21:00 -8°C° 0 mm 5 mps 745 mmHg 81%
    22:00 -8°C° 0 mm 5 mps 745 mmHg 83%
    23:00 -8°C° 0 mm 4 mps 745 mmHg 84%

    Tomorrow, 22 November, Thursday

    Time Temperature Precipitation Wind Pressure Humidity
    00:00 -8°C° 0 mm 4 mps 745 mmHg 86%
    01:00 -8°C° 0 mm 4 mps 744 mmHg 88%
    02:00 -8°C° 0 mm 4 mps 744 mmHg 89%
    03:00 -9°C° 0 mm 4 mps 744 mmHg 91%
    04:00 -9°C° 0 mm 4 mps 743 mmHg 91%
    05:00 -9°C° 0 mm 4 mps 742 mmHg 90%
    06:00 -8°C° 0 mm 5 mps 742 mmHg 90%
    07:00 -8°C° 0.1 mm 5 mps 741 mmHg 88%
    08:00 -8°C° 0.1 mm 6 mps 740 mmHg 86%
    09:00 -7°C° 0.1 mm 7 mps 739 mmHg 84%
    10:00 -7°C° 0.3 mm 7 mps 738 mmHg 84%
    11:00 -7°C° 0.3 mm 7 mps 737 mmHg 85%
    12:00 -7°C° 0.3 mm 8 mps 736 mmHg 85%
    13:00 -6°C° 0.4 mm 8 mps 736 mmHg 85%
    14:00 -6°C° 0.4 mm 7 mps 735 mmHg 84%
    15:00 -4°C° 0.4 mm 7 mps 734 mmHg 84%
    16:00 -5°C° 0.2 mm 6 mps 734 mmHg 84%
    17:00 -5°C° 0.2 mm 5 mps 734 mmHg 85%
    18:00 -5°C° 0.2 mm 4 mps 734 mmHg 85%
    19:00 -5°C° 0.1 mm 4 mps 734 mmHg 87%
    20:00 -6°C° 0.1 mm 3 mps 734 mmHg 89%
    21:00 -5°C° 0.1 mm 2 mps 734 mmHg 91%
    22:00 -7°C° 0.2 mm 3 mps 735 mmHg 90%
    23:00 -7°C° 0.2 mm 3 mps 735 mmHg 89%

    Day after tomorrow, 23 November, Friday

    Time Temperature Precipitation Wind Pressure Humidity
    00:00 -8°C° 0.2 mm 4 mps 735 mmHg 88%
    01:00 -9°C° 0.2 mm 4 mps 736 mmHg 88%
    02:00 -10°C° 0.2 mm 5 mps 737 mmHg 87%
    03:00 -10°C° 0.2 mm 5 mps 738 mmHg 87%
    04:00 -11°C° 0 mm 5 mps 739 mmHg 86%
    05:00 -12°C° 0 mm 5 mps 740 mmHg 85%
    06:00 -11°C° 0 mm 4 mps 741 mmHg 85%
    07:00 -12°C° 0 mm 5 mps 742 mmHg 84%
    08:00 -11°C° 0 mm 5 mps 743 mmHg 84%
    09:00 -11°C° 0 mm 6 mps 744 mmHg 83%
    10:00 -11°C° 0 mm 6 mps 744 mmHg 82%
    11:00 -11°C° 0 mm 6 mps 745 mmHg 80%
    12:00 -10°C° 0 mm 6 mps 745 mmHg 79%
    13:00 -11°C° 0 mm 6 mps 746 mmHg 79%
    14:00 -11°C° 0 mm 5 mps 747 mmHg 80%
    15:00 -11°C° 0 mm 5 mps 747 mmHg 80%
    16:00 -11°C° 0 mm 4 mps 747 mmHg 82%
    17:00 -11°C° 0 mm 4 mps 748 mmHg 83%
    18:00 -12°C° 0 mm 4 mps 748 mmHg 85%
    19:00 -11°C° 0.1 mm 4 mps 748 mmHg 85%
    20:00 -10°C° 0.1 mm 4 mps 748 mmHg 86%
    21:00 -11°C° 0.1 mm 5 mps 748 mmHg 86%
    22:00 -11°C° 0 mm 5 mps 748 mmHg 87%
    23:00 -9°C° 0 mm 4 mps 748 mmHg 88%

    24 November, Saturday

    Time Temperature Precipitation Wind Pressure Humidity
    00:00 -9°C° 0 mm 4 mps 748 mmHg 89%
    01:00 -9°C° 0 mm 4 mps 748 mmHg 89%
    02:00 -9°C° 0 mm 4 mps 748 mmHg 90%
    03:00 -9°C° 0 mm 4 mps 748 mmHg 90%
    04:00 -10°C° 0 mm 5 mps 747 mmHg 90%
    05:00 -10°C° 0 mm 5 mps 747 mmHg 90%
    06:00 -10°C° 0 mm 5 mps 746 mmHg 90%
    07:00 -10°C° 0 mm 5 mps 746 mmHg 90%
    08:00 -10°C° 0 mm 6 mps 746 mmHg 90%
    09:00 -9°C° 0 mm 6 mps 745 mmHg 89%
    10:00 -9°C° 0.1 mm 6 mps 745 mmHg 87%
    11:00 -8°C° 0.1 mm 7 mps 744 mmHg 85%
    12:00 -8°C° 0.1 mm 7 mps 744 mmHg 83%
    13:00 -7°C° 0.1 mm 7 mps 744 mmHg 83%
    14:00 -6°C° 0.1 mm 6 mps 744 mmHg 83%
    15:00 -5°C° 0.1 mm 6 mps 743 mmHg 83%
    16:00 -5°C° 0 mm 6 mps 743 mmHg 83%
    17:00 -6°C° 0 mm 6 mps 743 mmHg 84%
    18:00 -6°C° 0 mm 6 mps 743 mmHg 84%
    19:00 -6°C° 0 mm 6 mps 743 mmHg 85%
    20:00 -6°C° 0 mm 6 mps 743 mmHg 86%
    21:00 -6°C° 0 mm 5 mps 743 mmHg 86%
    22:00 -6°C° 0 mm 5 mps 743 mmHg 87%
    23:00 -6°C° 0 mm 5 mps 743 mmHg 87%

    25 November, Sunday

    Time Temperature Precipitation Wind Pressure Humidity
    00:00 -6°C° 0 mm 5 mps 743 mmHg 87%
    01:00 -6°C° 0.1 mm 5 mps 743 mmHg 88%
    02:00 -6°C° 0.1 mm 5 mps 742 mmHg 88%
    03:00 -6°C° 0.1 mm 5 mps 742 mmHg 89%
    04:00 -6°C° 0.2 mm 5 mps 742 mmHg 89%
    05:00 -6°C° 0.2 mm 5 mps 741 mmHg 90%
    06:00 -6°C° 0.2 mm 6 mps 741 mmHg 91%
    07:00 -6°C° 0.2 mm 6 mps 741 mmHg 90%
    08:00 -5°C° 0.2 mm 6 mps 741 mmHg 89%
    09:00 -5°C° 0.2 mm 6 mps 742 mmHg 88%
    10:00 -5°C° 0 mm 6 mps 742 mmHg 86%
    11:00 -5°C° 0 mm 6 mps 743 mmHg 84%
    12:00 -5°C° 0 mm 6 mps 743 mmHg 82%
    13:00 -5°C° 0 mm 5 mps 744 mmHg 83%
    14:00 -6°C° 0 mm 5 mps 745 mmHg 84%
    15:00 -5°C° 0 mm 4 mps 745 mmHg 85%
    16:00 -5°C° 0 mm 4 mps 746 mmHg 86%
    17:00 -6°C° 0 mm 3 mps 746 mmHg 87%
    18:00 -6°C° 0 mm 3 mps 747 mmHg 87%
    19:00 -6°C° 0 mm 2 mps 747 mmHg 88%
    20:00 -6°C° 0 mm 2 mps 747 mmHg 89%
    21:00 -6°C° 0 mm 2 mps 747 mmHg 89%
    22:00 -6°C° 0 mm 2 mps 747 mmHg 90%
    23:00 -5°C° 0 mm 2 mps 747 mmHg 91%

    26 November, Monday

    Time Temperature Precipitation Wind Pressure Humidity
    00:00 -5°C° 0 mm 2 mps 747 mmHg 91%
    01:00 -5°C° 0 mm 2 mps 747 mmHg 92%
    02:00 -6°C° 0 mm 2 mps 747 mmHg 93%
    03:00 -6°C° 0 mm 2 mps 747 mmHg 94%
    04:00 -6°C° 0 mm 2 mps 747 mmHg 94%
    05:00 -6°C° 0 mm 2 mps 746 mmHg 94%
    06:00 -7°C° 0 mm 2 mps 746 mmHg 95%
    07:00 -7°C° 0 mm 2 mps 746 mmHg 95%
    08:00 -6°C° 0 mm 2 mps 746 mmHg 95%
    09:00 -6°C° 0 mm 2 mps 746 mmHg 94%
    10:00 -6°C° 0 mm 2 mps 745 mmHg 94%
    11:00 -6°C° 0 mm 2 mps 745 mmHg 93%
    12:00 -3°C° 0 mm 1 mps 745 mmHg 92%
    13:00 -4°C° 0.1 mm 1 mps 744 mmHg 93%
    14:00 -4°C° 0.1 mm 1 mps 744 mmHg 94%
    15:00 -4°C° 0.1 mm 1 mps 743 mmHg 95%
    16:00 -6°C° 0.1 mm 1 mps 743 mmHg 95%
    17:00 -6°C° 0.1 mm 1 mps 743 mmHg 95%
    18:00 -6°C° 0.1 mm 1 mps 743 mmHg 96%
    19:00 -6°C° 0 mm 1 mps 743 mmHg 96%
    20:00 -7°C° 0 mm 1 mps 742 mmHg 96%
    21:00 -7°C° 0 mm 1 mps 742 mmHg 96%
    22:00 -7°C° 0 mm 1 mps 742 mmHg 96%
    23:00 -8°C° 0 mm 2 mps 742 mmHg 96%
    Show more